Location: Brede
(50.9167°N, 0.6000°E)
Time: 16:48:28
(UTC+00:00)

Cosmos 1703 - Pass Details

Date: 08 August 2020
Orbit: 523 x 540 km, 82.5° (Epoch: 23 September)

Event Time Altitude Azimuth Distance (km) Brightness Sun altitude
Rises 03:53:53 0° 345° (NNW) 2,714 7.1 -6.3°
Reaches altitude 10° 03:56:05 10° 341° (NNW) 1,817 6.2 -6.0°
Maximum altitude 03:59:58 52° 265° (W) 677 3.5 -5.5°
Drops below altitude 10° 04:03:48 10° 189° (S) 1,796 5.6 -5.0°
Sets 04:05:59 0° 184° (S) 2,681 6.5 -4.7°
